User: anonymous   Login
Location: G�kdere
(37.0328°N, 30.9000°E)
Time: 18:59:08
(UTC+00:00)
Language:

Cosmos 1959 Rocket - Orbit

View from above orbital plane
View from above orbital plane
View from above satellite
View from above satellite

Ground track
Ground track

The orbit data is extracted from the following two-line orbital elements,

1 19325U 88062B   21333.05077243  .00000027  00000-0  11562-4 0  9992
2 19325  82.9512 254.4196 0034027   2.1874   8.3446 13.77639246639403
Epoch (UTC): 29 November 2021 01:13:06
Eccentricity: 0.0034027
inclination: 82.9512°
perigee height: 947 km
apogee height: 997 km
right ascension of ascending node: 254.4196°
argument of perigee: 2.1874°
revolutions per day: 13.77639246
mean anomaly at epoch: 8.3446°
orbit number at epoch: 63940

The dashed part of the orbit path shows where the satellite is in the earth's shadow,  

DLR